| time (UTC) | temp F | wind direction | speed MPH | gust MPH | rain 1hr in | rain 24hr in | rain mn in | humidity % | barometer mb |
| 20260509072309 | 56 | 131 | 1.0 | 9.0 | 0.00 | 0.00 | 0.00 | 70 | 17.5 |
| 20260509071309 | 55 | 115 | 1.0 | 8.0 | 0.00 | 0.00 | 0.00 | 73 | 17.5 |
| 20260509065309 | 53 | 109 | 0.0 | 6.0 | 0.00 | 0.00 | 0.00 | 78 | 17.4 |
| 20260509064309 | 51 | 71 | 0.0 | 6.0 | 0.00 | 0.00 | 0.00 | 80 | 17.6 |
| 20260509063309 | 51 | 133 | 1.0 | 4.0 | 0.00 | 0.00 | 0.00 | 81 | 17.7 |
| 20260509062309 | 49 | 145 | 0.0 | 4.0 | 0.00 | 0.00 | 0.00 | 82 | 17.8 |
| 20260509055309 | 47 | 128 | 0.0 | 3.0 | 0.00 | 0.00 | 0.00 | 83 | 17.9 |
| 20260509054309 | 47 | 102 | 0.0 | 3.0 | 0.00 | 0.00 | 0.00 | 83 | 17.9 |
| 20260509053309 | 46 | 92 | 0.0 | 0.0 | 0.00 | 0.00 | 0.00 | 83 | 17.8 |
| 20260509052309 | 46 | 94 | 0.0 | 0.0 | 0.00 | 0.00 | 0.00 | 83 | 17.6 |
| 20260509051309 | 46 | 88 | 0.0 | 0.0 | 0.00 | 0.00 | 0.00 | 83 | 17.6 |
| 20260509045310 | 45 | 79 | 0.0 | 0.0 | 0.00 | 0.00 | 0.00 | 83 | 17.5 |
| 20260509044311 | 45 | 78 | 0.0 | 0.0 | 0.00 | 0.00 | 0.00 | 83 | 17.5 |
| 20260509043309 | 45 | 74 | 0.0 | 1.0 | 0.00 | 0.00 | 0.00 | 82 | 17.4 |
| 20260509042310 | 45 | 79 | 0.0 | 2.0 | 0.00 | 0.00 | 0.00 | 82 | 17.4 |
| 20260509041309 | 45 | 96 | 0.0 | 1.0 | 0.00 | 0.00 | 0.00 | 82 | 17.2 |
| 20260509035311 | 45 | 107 | 0.0 | 1.0 | 0.00 | 0.00 | 0.00 | 81 | 17.1 |
| 20260509033309 | 45 | 116 | 0.0 | 0.0 | 0.00 | 0.00 | 0.00 | 80 | 17.0 |
| 20260509032310 | 45 | 116 | 0.0 | 0.0 | 0.00 | 0.00 | 0.00 | 80 | 17.2 |
| 20260509031310 | 46 | 116 | 0.0 | 0.0 | 0.00 | 0.00 | 0.00 | 80 | 17.0 |
| 20260509025309 | 46 | 116 | 0.0 | 0.0 | 0.00 | 0.00 | 0.00 | 80 | 16.9 |
| 20260509024310 | 46 | 116 | 0.0 | 0.0 | 0.00 | 0.00 | 0.00 | 79 | 17.2 |
| 20260509023309 | 46 | 116 | 0.0 | 0.0 | 0.00 | 0.00 | 0.00 | 79 | 17.1 |
| 20260509022309 | 47 | 116 | 0.0 | 0.0 | 0.00 | 0.00 | 0.00 | 78 | 17.2 |
| 20260509021310 | 47 | 116 | 0.0 | 0.0 | 0.00 | 0.00 | 0.00 | 78 | 17.1 |
| 20260509015309 | 47 | 116 | 0.0 | 0.0 | 0.00 | 0.00 | 0.00 | 78 | 17.1 |
| 20260509014311 | 48 | 116 | 0.0 | 0.0 | 0.00 | 0.00 | 0.00 | 78 | 17.2 |
| 20260509013309 | 48 | 116 | 0.0 | 0.0 | 0.00 | 0.00 | 0.00 | 78 | 17.2 |
| 20260509012309 | 48 | 116 | 0.0 | 0.0 | 0.00 | 0.00 | 0.00 | 79 | 17.2 |
| 20260509005309 | 48 | 128 | 0.0 | 2.0 | 0.00 | 0.00 | 0.00 | 79 | 17.2 |
| 20260509004311 | 48 | 120 | 0.0 | 2.0 | 0.00 | 0.00 | 0.00 | 78 | 17.3 |
| 20260509002309 | 48 | 132 | 0.0 | 0.0 | 0.00 | 0.00 | 0.00 | 77 | 17.4 |
| 20260508235309 | 49 | 121 | 0.0 | 0.0 | 0.00 | 0.00 | 0.00 | 76 | 17.4 |
| 20260508234309 | 49 | 113 | 0.0 | 1.0 | 0.00 | 0.00 | 0.00 | 76 | 17.4 |
| 20260508233310 | 49 | 140 | 0.0 | 1.0 | 0.00 | 0.00 | 0.00 | 75 | 17.3 |
| 20260508232309 | 49 | 140 | 0.0 | 1.0 | 0.00 | 0.00 | 0.00 | 74 | 17.2 |
| 20260508231309 | 49 | 140 | 0.0 | 0.0 | 0.00 | 0.00 | 0.00 | 74 | 17.2 |
| 20260508225309 | 50 | 141 | 0.0 | 0.0 | 0.00 | 0.00 | 0.00 | 73 | 17.2 |
| 20260508224309 | 50 | 141 | 0.0 | 1.0 | 0.00 | 0.00 | 0.00 | 73 | 17.3 |
| 20260508223309 | 50 | 141 | 0.0 | 1.0 | 0.00 | 0.00 | 0.00 | 73 | 17.3 |
| 20260508221309 | 51 | 115 | 0.0 | 0.0 | 0.00 | 0.00 | 0.00 | 72 | 17.4 |
| 20260508220309 | 51 | 115 | 0.0 | 0.0 | 0.00 | 0.00 | 0.00 | 71 | 17.3 |
| 20260508215309 | 51 | 116 | 0.0 | 0.0 | 0.00 | 0.00 | 0.00 | 70 | 17.3 |
| 20260508213309 | 51 | 111 | 0.0 | 1.0 | 0.00 | 0.00 | 0.00 | 69 | 17.3 |
| 20260508212310 | 52 | 57 | 0.0 | 0.0 | 0.00 | 0.00 | 0.00 | 69 | 17.3 |
| 20260508211309 | 52 | 57 | 0.0 | 0.0 | 0.00 | 0.00 | 0.00 | 68 | 17.4 |
| 20260508205309 | 53 | 57 | 0.0 | 0.0 | 0.00 | 0.00 | 0.00 | 66 | 17.1 |
| 20260508204309 | 53 | 55 | 0.0 | 0.0 | 0.00 | 0.00 | 0.00 | 65 | 17.1 |
| 20260508203309 | 54 | 55 | 0.0 | 0.0 | 0.00 | 0.00 | 0.00 | 64 | 17.2 |
| 20260508201310 | 55 | 55 | 0.0 | 0.0 | 0.00 | 0.00 | 0.00 | 64 | 17.3 |
| 20260508194309 | 57 | 55 | 0.0 | 0.0 | 0.00 | 0.00 | 0.00 | 63 | 17.1 |
| 20260508193310 | 58 | 55 | 0.0 | 0.0 | 0.00 | 0.00 | 0.00 | 62 | 16.9 |
| 20260508192309 | 58 | 55 | 0.0 | 0.0 | 0.00 | 0.00 | 0.00 | 61 | 16.7 |
| 20260508191309 | 59 | 55 | 0.0 | 0.0 | 0.00 | 0.00 | 0.00 | 60 | 16.7 |
| 20260508190309 | 60 | 55 | 0.0 | 0.0 | 0.00 | 0.00 | 0.00 | 59 | 16.5 |
| 20260508184309 | 60 | 55 | 0.0 | 0.0 | 0.00 | 0.00 | 0.00 | 55 | 16.5 |
| 20260508183309 | 61 | 55 | 0.0 | 0.0 | 0.00 | 0.00 | 0.00 | 54 | 16.3 |
| 20260508182309 | 61 | 55 | 0.0 | 0.0 | 0.00 | 0.00 | 0.00 | 53 | 16.4 |
| 20260508181309 | 62 | 55 | 0.0 | 0.0 | 0.00 | 0.00 | 0.00 | 54 | 16.2 |
| 20260508175309 | 63 | 55 | 0.0 | 0.0 | 0.00 | 0.00 | 0.00 | 49 | 16.2 |
| 20260508174309 | 64 | 55 | 0.0 | 0.0 | 0.00 | 0.00 | 0.00 | 47 | 16.1 |
| 20260508173309 | 64 | 55 | 0.0 | 1.0 | 0.00 | 0.00 | 0.00 | 47 | 16.2 |
| 20260508172309 | 65 | 84 | 0.0 | 1.0 | 0.00 | 0.00 | 0.00 | 47 | 16.1 |
| 20260508165309 | 65 | 108 | 0.0 | 3.0 | 0.00 | 0.00 | 0.00 | 50 | 15.9 |
| 20260508164309 | 65 | 77 | 0.0 | 1.0 | 0.00 | 0.00 | 0.00 | 51 | 15.9 |
| 20260508163309 | 64 | 155 | 0.0 | 1.0 | 0.00 | 0.00 | 0.00 | 51 | 15.9 |
| 20260508162309 | 64 | 153 | 0.0 | 2.0 | 0.00 | 0.00 | 0.00 | 53 | 15.9 |
| 20260508161309 | 64 | 148 | 0.0 | 0.0 | 0.00 | 0.00 | 0.00 | 53 | 15.9 |
| 20260508155309 | 64 | 136 | 0.0 | 1.0 | 0.00 | 0.00 | 0.00 | 54 | 16.0 |
| 20260508154309 | 64 | 161 | 0.0 | 1.0 | 0.00 | 0.00 | 0.00 | 54 | 16.1 |
| 20260508152310 | 64 | 163 | 0.0 | 2.0 | 0.00 | 0.00 | 0.00 | 53 | 16.3 |
| 20260508151310 | 64 | 123 | 0.0 | 2.0 | 0.00 | 0.00 | 0.00 | 54 | 16.3 |
| 20260508145309 | 64 | 149 | 0.0 | 2.0 | 0.00 | 0.00 | 0.00 | 54 | 16.3 |
| 20260508143309 | 64 | 133 | 0.0 | 2.0 | 0.00 | 0.00 | 0.00 | 56 | 16.2 |
| 20260508142309 | 63 | 138 | 0.0 | 1.0 | 0.00 | 0.00 | 0.00 | 54 | 16.2 |
| 20260508141309 | 64 | 80 | 2.0 | 6.0 | 0.00 | 0.00 | 0.00 | 54 | 16.3 |
| 20260508135309 | 65 | 84 | 3.0 | 7.0 | 0.00 | 0.00 | 0.00 | 53 | 16.3 |
| 20260508134310 | 65 | 96 | 1.0 | 6.0 | 0.00 | 0.00 | 0.00 | 54 | 16.5 |
| 20260508133309 | 64 | 96 | 2.0 | 6.0 | 0.00 | 0.00 | 0.00 | 56 | 16.6 |
| 20260508131309 | 65 | 116 | 0.0 | 1.0 | 0.00 | 0.00 | 0.00 | 55 | 16.4 |
| 20260508125309 | 65 | 161 | 0.0 | 3.0 | 0.00 | 0.00 | 0.00 | 54 | 16.5 |
| 20260508121309 | 67 | 75 | 0.0 | 6.0 | 0.00 | 0.00 | 0.00 | 50 | 16.6 |
| 20260508115309 | 68 | 224 | 0.0 | 8.0 | 0.00 | 0.00 | 0.00 | 49 | 16.4 |
| 20260508114309 | 69 | 143 | 2.0 | 8.0 | 0.00 | 0.00 | 0.00 | 50 | 16.3 |
| 20260508113309 | 68 | 252 | 0.0 | 4.0 | 0.00 | 0.00 | 0.00 | 50 | 16.5 |
| 20260508112309 | 67 | 107 | 0.0 | 5.0 | 0.00 | 0.00 | 0.00 | 52 | 16.5 |
| 20260508111310 | 67 | 51 | 0.0 | 4.0 | 0.00 | 0.00 | 0.00 | 53 | 16.6 |
| 20260508105313 | 67 | 213 | 0.0 | 8.0 | 0.00 | 0.00 | 0.00 | 54 | 16.6 |
| 20260508104309 | 66 | 100 | 1.0 | 8.0 | 0.00 | 0.00 | 0.00 | 55 | 16.6 |
| 20260508103310 | 66 | 130 | 0.0 | 7.0 | 0.00 | 0.00 | 0.00 | 56 | 16.6 |
| 20260508102309 | 65 | 157 | 3.0 | 8.0 | 0.00 | 0.00 | 0.00 | 59 | 16.6 |
| 20260508095309 | 63 | 141 | 0.0 | 9.0 | 0.00 | 0.00 | 0.00 | 60 | 16.8 |
| 20260508093309 | 63 | 150 | 2.0 | 10.0 | 0.00 | 0.00 | 0.00 | 60 | 16.8 |
| 20260508091309 | 60 | 66 | 2.0 | 8.0 | 0.00 | 0.00 | 0.00 | 61 | 17.0 |
| 20260508085309 | 58 | 140 | 4.0 | 10.0 | 0.00 | 0.00 | 0.00 | 64 | 16.9 |
| 20260508083309 | 57 | 132 | 1.0 | 7.0 | 0.00 | 0.00 | 0.00 | 68 | 16.8 |
| 20260508082309 | 57 | 119 | 5.0 | 9.0 | 0.00 | 0.00 | 0.00 | 67 | 16.9 |
| 20260508081309 | 56 | 149 | 3.0 | 9.0 | 0.00 | 0.00 | 0.00 | 70 | 16.9 |
| 20260508075309 | 55 | 120 | 0.0 | 7.0 | 0.00 | 0.00 | 0.00 | 72 | 16.7 |
| 20260508074309 | 54 | 130 | 0.0 | 7.0 | 0.00 | 0.00 | 0.00 | 73 | 16.7 |
| 20260508073309 | 54 | 109 | 2.0 | 7.0 | 0.00 | 0.00 | 0.00 | 74 | 16.6 |